Zurück zum Katalog

STARLINK-36109

AktivKommunikationVLEO
NORAD 66943·PAYLOAD·🇺🇸 United States

Gestartet Dec 7, 2025 von Vandenberg Space Force Base

Loading…

Nächste Überflüge (nächste 24 Stunden)

TLE

AktuellSource: CelesTrak SupGP

Epoche: Sep 14, 2026, 22:52 UTC

1 66943C 25286U   26257.95326389 -.00026594  00000+0 -78535-3 0  2573
2 66943  53.1574 195.4691 0001323 103.4622  69.7640 15.34419237    19

Verfolge STARLINK-36109 in Echtzeit mit AllMySat

Download on the App Store